Regional Weather Roundup
Issued by NWS

Home | Current Version | Previous Version | Text Only | Print | Product List | Glossary Off
Versions: 1 2 3 4 5 6 7 8 9 10 11 12 13 14 15 16 17 18 19 20 21 22 23 24 25 26 27 28 29 30 31 32 33 34 35 36 37 38 39 40 41 42 43 44 45 46 47 48 49 50

000
ASUS43 KOAX 031202
RWRNE

WEATHER ROUNDUP FOR NEBRASKA
NATIONAL WEATHER SERVICE OMAHA NE
700 AM CDT WED JUN 03 2015

NOTES: SATELLITE DATA IS BEING USED TO AUGMENT CLOUD COVER ABOVE
       12000 FEET.
       "FAIR" INDICATES FEW OR NO CLOUDS BELOW 12,000 FEET WITH NO
       SIGNIFICANT WEATHER AND/OR OBSTRUCTIONS TO VISIBILITY.

  * THESE STATIONS DO NOT REPORT WEATHER SUCH AS RAIN...SNOW OR FOG.

NEZ001>004-019>022-054>056-031300-
NEBRASKA PANHANDLE

CITY           SKY/WX    TMP DP  RH WIND       PRES   REMARKS
SCOTTSBLUFF    CLEAR     52  50  93 NW3       30.01R
6HR MIN TEMP:  52; 6HR MAX TEMP:  62;

ALLIANCE       PTCLDY    52  51  97 N6        29.97R
6HR MIN TEMP:  52; 6HR MAX TEMP:  59;

CHADRON        CLEAR     51  50  96 SW3       29.98R
6HR MIN TEMP:  50; 6HR MAX TEMP:  61;

KIMBALL          N/A    N/A N/A N/A MISG        N/A
SIDNEY         CLEAR     54  52  93 N8        29.98R
6HR MIN TEMP:  54; 6HR MAX TEMP:  63;

$$

NEZ057>060-069>072-079>082-031300-
SOUTHWEST NEBRASKA

CITY           SKY/WX    TMP DP  RH WIND       PRES   REMARKS
NORTH PLATTE   CLOUDY    60  56  86 N13G22    29.86F
6HR MIN TEMP:  58; 6HR MAX TEMP:  64; 6HR PCP:  0.32;

IMPERIAL       PTCLDY    59  53  80 SE9       29.88R
6HR MIN TEMP:  59; 6HR MAX TEMP:  68;

LEXINGTON      CLOUDY    62  58  86 SE12      29.86F
MCCOOK         MOCLDY    65  54  67 E20G26    29.88R
6HR MIN TEMP:  64; 6HR MAX TEMP:  72;

$$

NEZ005>010-023>029-035>040-094-031300-
NORTH CENTRAL NEBRASKA

CITY           SKY/WX    TMP DP  RH WIND       PRES   REMARKS
VALENTINE      CLOUDY    56  53  90 W6        29.91R
6HR MIN TEMP:  56; 6HR MAX TEMP:  66;

AINSWORTH      CLOUDY    60  58  92 W6        29.90R
BROKEN BOW     CLOUDY    63  57  81 N18G28    29.88S
6HR MIN TEMP:  60; 6HR MAX TEMP:  66; 6HR PCP:  0.82;

O`NEILL        CLOUDY    61  60  97 SW5       29.87R
ORD            CLOUDY    63  56  78 SE12G21   29.78F
6HR MIN TEMP:  60; 6HR MAX TEMP:  64; 6HR PCP:  0.33;

$$

NEZ041-046>049-061>064-073>077-083>087-031300-
SOUTH CENTRAL NEBRASKA

CITY           SKY/WX    TMP DP  RH WIND       PRES   REMARKS
GRAND ISLAND   LGT RAIN  61  59  93 SE8       29.94F
6HR MIN TEMP:  60; 6HR MAX TEMP:  69; 6HR PCP:  0.86;

AURORA         LGT RAIN  61  61 100 CALM      29.96F
HASTINGS       CLOUDY    60  60 100 E12       29.92F
6HR MIN TEMP:  60; 6HR MAX TEMP:  71; 6HR PCP:  0.30;

KEARNEY *      CLOUDY    59  55  88 E10       29.90F
$$

NEZ011>018-030>034-042>045-031300-
NORTHEAST NEBRASKA

CITY           SKY/WX    TMP DP  RH WIND       PRES   REMARKS
NORFOLK        CLOUDY    64  59  83 S10       29.87F
6HR MIN TEMP:  62; 6HR MAX TEMP:  67; 6HR PCP:  0.29;

ALBION         LGT RAIN  61  58  88 S16       29.83F
BLAIR          CLOUDY    64  60  87 SE9       29.81F
COLUMBUS *     CLOUDY    63  57  82 W14       29.95R
FREMONT        CLOUDY    64  62  93 SW8       29.88R
TEKAMAH        CLOUDY    65  62  90 S9        29.82R
6HR MIN TEMP:  63; 6HR MAX TEMP:  67; 6HR PCP:  0.09;

$$

NEZ050>053-065>068-078-088>093-031300-
SOUTHEAST NEBRASKA

CITY           SKY/WX    TMP DP  RH WIND       PRES   REMARKS
LINCOLN        LGT RAIN  63  62  97 SW6       29.93R
6HR MIN TEMP:  62; 6HR MAX TEMP:  68; 6HR PCP:  0.74;

OMAHA EPPLEY   LGT RAIN  64  63  96 S22       29.83F
6HR MIN TEMP:  64; 6HR MAX TEMP:  68; 6HR PCP:  0.33;

BEATRICE       CLOUDY    63  61  94 E3        29.92S
FALLS CITY     LGT RAIN  64  63  96 CALM      29.92F FOG
6HR MIN TEMP:  64; 6HR MAX TEMP:  66; 6HR PCP:  0.63;

NEBRASKA CITY  RAIN      64  63  97 S7        29.92R
PLATTSMOUTH    RAIN      63  61  93 SE10      29.89F
$$

NEZ044-045-051>053-067-031300-
OMAHA AREA

CITY           SKY/WX    TMP DP  RH WIND       PRES   REMARKS
OMAHA EPPLEY   LGT RAIN  64  63  96 S22       29.83F
6HR MIN TEMP:  64; 6HR MAX TEMP:  68; 6HR PCP:  0.33;

BLAIR          CLOUDY    64  60  87 SE9       29.81F
FREMONT        CLOUDY    64  62  93 SW8       29.88R
OFFUTT AFB     RAIN      63  62  97 CALM      29.86F FOG
PLATTSMOUTH    RAIN      63  61  93 SE10      29.89F
WAHOO          LGT RAIN  64  61  92 SW16G25   29.90R
$$


USA.gov is the U.S. government's official web portal to all federal, state and local government web resources and services.